| time (UTC) | temp F | wind direction | speed knots | gust knots | rain 1hr in | rain 24hr in | rain mn in | humidity % | barometer mb |
| 20260504211514 | 47 | 257 | 7.8 | 12.2 | 0.00 | 0.06 | 0.00 | 75 | 1003.2 |
| 20260504210021 | 47 | 253 | 10.4 | 13.9 | 0.00 | 0.06 | 0.00 | 75 | 1003.1 |
| 20260504204513 | 49 | 252 | 7.8 | 13.0 | 0.00 | 0.06 | 0.00 | 72 | 1003.0 |
| 20260504203012 | 47 | 266 | 7.0 | 10.4 | 0.00 | 0.07 | 0.00 | 73 | 1003.0 |
| 20260504201513 | 47 | 257 | 6.1 | 9.6 | 0.00 | 0.07 | 0.00 | 73 | 1003.2 |
| 20260504200011 | 47 | 284 | 4.3 | 9.6 | 0.00 | 0.07 | 0.00 | 74 | 1003.1 |
| 20260504194553 | 46 | 325 | 5.2 | 7.8 | 0.00 | 0.07 | 0.00 | 73 | 1003.3 |
| 20260504193051 | 46 | 327 | 5.2 | 10.4 | 0.00 | 0.11 | 0.00 | 72 | 1003.3 |
| 20260504191539 | 46 | 343 | 7.0 | 12.2 | 0.00 | 0.11 | 0.00 | 71 | 1003.3 |
| 20260504190032 | 47 | 289 | 7.8 | 13.0 | 0.00 | 0.11 | 0.00 | 68 | 1003.3 |
| 20260504184515 | 47 | 304 | 6.1 | 13.0 | 0.00 | 0.11 | 0.00 | 65 | 1003.4 |
| 20260504183013 | 48 | 302 | 5.2 | 15.6 | 0.00 | 0.13 | 0.00 | 64 | 1003.3 |
| 20260504181557 | 50 | 238 | 6.1 | 12.2 | 0.00 | 0.13 | 0.00 | 55 | 1003.0 |
| 20260504180059 | 50 | 257 | 9.6 | 18.2 | 0.00 | 0.13 | 0.00 | 54 | 1002.9 |
| 20260504174535 | 51 | 345 | 7.8 | 18.2 | 0.00 | 0.13 | 0.00 | 50 | 1002.8 |
| 20260504173037 | 52 | 229 | 9.6 | 13.9 | 0.00 | 0.15 | 0.00 | 47 | 1002.5 |
| 20260504171517 | 53 | 313 | 9.6 | 15.6 | 0.00 | 0.15 | 0.00 | 43 | 1002.3 |
| 20260504081539 | 32 | 320 | 1.7 | 5.2 | 0.00 | 0.40 | 0.24 | 86 | 1002.8 |
| 20260504050015 | 36 | 348 | 7.0 | 11.3 | 0.00 | 0.42 | 0.24 | 83 | 1002.2 |
| 20260504044512 | 37 | 335 | 7.8 | 12.2 | 0.00 | 0.42 | 0.24 | 84 | 1002.2 |
| 20260504043058 | 37 | 333 | 7.0 | 13.0 | 0.00 | 0.42 | 0.24 | 85 | 1002.2 |
| 20260504041559 | 38 | 335 | 6.1 | 14.8 | 0.00 | 0.42 | 0.24 | 85 | 1002.2 |
| 20260504040053 | 38 | 348 | 4.3 | 11.3 | 0.00 | 0.42 | 0.24 | 87 | 1002.2 |
| 20260504034549 | 39 | 338 | 6.1 | 13.0 | 0.00 | 0.42 | 0.24 | 91 | 1002.0 |
| 20260504033047 | 39 | 342 | 6.1 | 10.4 | 0.00 | 0.42 | 0.24 | 92 | 1001.9 |
| 20260504031547 | 39 | 338 | 2.6 | 7.8 | 0.00 | 0.42 | 0.24 | 93 | 1001.9 |
| 20260504030042 | 39 | 335 | 4.3 | 8.7 | 0.00 | 0.42 | 0.24 | 93 | 1002.0 |
| 20260504024554 | 39 | 325 | 0.0 | 7.0 | 0.00 | 0.42 | 0.24 | 93 | 1002.0 |
| 20260504023029 | 39 | 360 | 0.9 | 2.6 | 0.00 | 0.42 | 0.24 | 93 | 1001.9 |
| 20260504021528 | 39 | 360 | 1.7 | 5.2 | 0.01 | 0.42 | 0.24 | 93 | 1001.8 |
| 20260504020028 | 39 | 355 | 0.9 | 6.1 | 0.01 | 0.42 | 0.24 | 93 | 1001.9 |
| 20260504014527 | 39 | 13 | 2.6 | 7.8 | 0.02 | 0.42 | 0.24 | 93 | 1001.9 |
| 20260504013034 | 40 | 336 | 2.6 | 10.4 | 0.02 | 0.42 | 0.24 | 94 | 1002.0 |
| 20260504011528 | 40 | 14 | 1.7 | 10.4 | 0.01 | 0.41 | 0.23 | 93 | 1002.1 |
| 20260504010023 | 40 | 14 | 2.6 | 12.2 | 0.02 | 0.41 | 0.23 | 94 | 1001.9 |
| 20260504004526 | 40 | 34 | 2.6 | 8.7 | 0.01 | 0.40 | 0.22 | 94 | 1001.9 |
| 20260504003004 | 40 | 319 | 1.7 | 7.0 | 0.01 | 0.40 | 0.22 | 93 | 1001.8 |
| 20260504001503 | 40 | 355 | 1.7 | 6.1 | 0.00 | 0.39 | 0.21 | 93 | 1001.7 |
| 20260504000112 | 40 | 333 | 1.7 | 7.8 | 0.01 | 0.39 | 0.21 | 93 | 1001.6 |
| 20260503234552 | 40 | 15 | 1.7 | 8.7 | 0.01 | 0.39 | 0.21 | 94 | 1001.6 |
| 20260503233031 | 40 | 340 | 1.7 | 8.7 | 0.01 | 0.40 | 0.21 | 94 | 1001.6 |
| 20260503231530 | 40 | 336 | 0.9 | 6.1 | 0.02 | 0.40 | 0.21 | 93 | 1001.6 |
| 20260503230028 | 40 | 348 | 0.9 | 5.2 | 0.01 | 0.39 | 0.20 | 93 | 1001.6 |
| 20260503224529 | 40 | 53 | 1.7 | 7.8 | 0.01 | 0.39 | 0.20 | 93 | 1001.8 |
| 20260503223036 | 40 | 16 | 0.9 | 3.5 | 0.01 | 0.39 | 0.20 | 93 | 1001.7 |
| 20260503221525 | 40 | 16 | 1.7 | 6.1 | 0.01 | 0.38 | 0.19 | 93 | 1001.7 |
| 20260503220024 | 40 | 22 | 0.9 | 5.2 | 0.01 | 0.38 | 0.19 | 93 | 1001.7 |
| 20260503214524 | 40 | 33 | 1.7 | 6.1 | 0.01 | 0.38 | 0.19 | 93 | 1001.9 |
| 20260503213021 | 40 | 27 | 0.9 | 4.3 | 0.01 | 0.38 | 0.19 | 93 | 1002.1 |